ǯ����,��ʬ��,�Ǿ��������١�,ʿ���������١�,�����������١�,�Ǿ���®(m/s),ʿ����®(m/s),������®(m/s),����(���,���١ʡ��,����(hPa),�߱���(mm),�߱�����(�á�,�߱�����(mm/h),�ߤҤ礦��(hit/���),�ߤҤ礦����(�á�,�ߤҤ礦����(hit/���h),�ҡ�������(���,�ҡ������Ű���V),�Ÿ��Ű���V),�����Ű���V)
2006/09/01,00:00:01,135,217,273,0.2,2.2,4.8,28.2,85.7,996.9,0.00,0,0.0,0.0,0,0.0,26.6,0.0,11.9,3.469
2006/09/01,00:10:01,152,221,271,0.6,2.2,4.4,28.2,85.6,996.9,0.00,0,0.0,0.0,0,0.0,26.6,0.0,12.0,3.469
2006/09/01,00:20:01,140,221,275,0.4,2.2,4.9,28.2,85.8,996.8,0.00,0,0.0,0.0,0,0.0,26.3,0.0,12.1,3.470
2006/09/01,00:30:01,169,225,283,0.5,2.4,4.9,28.3,86.1,996.8,0.00,0,0.0,0.0,0,0.0,26.4,0.0,12.1,3.469
2006/09/01,00:40:01,151,225,283,0.1,2.3,5.2,28.3,86.4,996.7,0.00,0,0.0,0.0,0,0.0,26.6,0.0,12.1,3.469
2006/09/01,00:50:01,169,226,287,0.5,2.3,4.9,28.3,86.5,996.5,0.00,0,0.0,0.0,0,0.0,26.6,0.0,12.1,3.470
2006/09/01,01:00:01,165,236,293,0.8,3.0,6.9,28.4,85.6,996.3,0.00,0,0.0,0.0,0,0.0,26.8,0.0,12.1,3.468
2006/09/01,01:10:01,169,238,289,0.4,3.3,6.4,28.5,84.4,996.2,0.00,0,0.0,0.0,0,0.0,26.8,0.0,12.0,3.469
2006/09/01,01:20:01,187,240,295,0.8,3.7,6.7,28.5,83.1,996.2,0.00,0,0.0,0.0,0,0.0,26.9,0.0,12.0,3.470
2006/09/01,01:30:01,183,241,302,0.9,4.1,7.0,28.6,81.6,996.1,0.00,0,0.0,0.0,0,0.0,27.1,0.0,11.9,3.468
2006/09/01,01:40:01,168,238,286,0.6,3.4,7.1,28.6,83.7,996.2,0.00,0,0.0,0.0,0,0.0,27.1,0.0,11.9,3.470
2006/09/01,01:50:01,168,223,292,0.0,2.5,5.1,28.3,85.1,996.2,0.00,0,0.0,0.0,0,0.0,26.6,0.0,12.1,3.470
2006/09/01,02:00:01,152,227,284,0.3,2.9,6.7,28.3,85.3,996.1,0.00,0,0.0,0.0,0,0.0,26.6,0.0,11.9,3.469
2006/09/01,02:10:01,163,222,286,0.3,2.7,6.2,28.3,85.6,996.1,0.00,0,0.0,0.0,0,0.0,26.6,0.0,11.9,3.468
2006/09/01,02:20:01,54,220,346,0.1,2.8,6.5,28.3,85.7,996.1,0.00,0,0.0,0.0,0,0.0,26.6,0.0,12.1,3.468
2006/09/01,02:30:01,163,224,298,0.5,2.8,5.8,28.3,84.7,996.2,0.00,0,0.0,0.0,0,0.0,26.6,0.0,11.9,3.470
2006/09/01,02:40:01,80,231,295,0.2,2.9,7.5,28.5,85.0,996.2,0.00,0,0.0,0.0,0,0.0,26.8,0.0,11.9,3.469
2006/09/01,02:50:01,167,232,358,0.3,2.8,6.4,28.6,84.0,996.2,0.00,0,0.0,0.0,0,0.0,27.4,0.0,12.1,3.469
2006/09/01,03:00:01,124,214,340,0.1,2.4,5.6,28.4,85.6,996.2,0.00,0,0.0,0.0,0,0.0,26.9,0.0,12.0,3.469
2006/09/01,03:10:01,109,219,33,0.2,2.4,5.0,28.3,86.1,996.2,0.00,0,0.0,0.0,0,0.0,26.8,0.0,11.9,3.469
2006/09/01,03:20:01,166,222,293,0.1,2.4,5.2,28.3,86.0,996.1,0.00,0,0.0,0.0,0,0.0,26.8,0.0,11.9,3.469
2006/09/01,03:30:01,129,211,4,0.3,2.5,5.5,28.3,86.0,996.1,0.00,0,0.0,0.0,0,0.0,26.8,0.0,11.9,3.469
2006/09/01,03:40:01,153,227,10,0.2,2.5,4.9,28.5,85.7,996.2,0.00,0,0.0,0.0,0,0.0,26.8,0.0,11.9,3.469
2006/09/01,03:50:01,170,236,308,0.3,2.7,6.7,28.7,85.9,996.3,0.00,0,0.0,0.0,0,0.0,26.9,0.0,12.1,3.469
2006/09/01,04:00:01,116,245,59,0.2,3.3,7.0,28.5,85.1,996.3,0.00,0,0.0,0.0,0,0.0,27.1,0.0,12.0,3.470
2006/09/01,04:10:01,82,261,73,0.0,2.7,7.6,28.4,85.0,996.3,0.00,0,0.0,0.0,0,0.0,26.9,0.0,12.1,3.468
2006/09/01,04:20:01,173,266,62,0.0,2.9,6.8,28.4,85.4,996.2,0.00,0,0.0,0.0,0,0.0,26.9,0.0,11.9,3.470
2006/09/01,04:30:01,188,265,34,0.3,3.7,11.1,28.5,84.7,996.2,0.00,0,0.0,0.0,0,0.0,26.8,0.0,11.9,3.469
2006/09/01,04:40:01,131,265,46,0.1,4.4,11.7,28.1,86.2,996.3,0.00,0,0.0,0.0,0,0.0,26.8,0.0,12.0,3.470
2006/09/01,04:50:01,92,265,81,0.1,4.1,9.7,27.7,87.8,996.5,0.00,0,0.0,0.0,0,0.0,26.3,0.0,12.0,3.469
2006/09/01,05:00:01,88,267,79,0.0,3.3,9.7,27.6,86.9,996.5,0.00,0,0.0,0.0,0,0.0,26.1,0.0,12.1,3.470
2006/09/01,05:10:01,115,263,70,0.1,3.6,9.0,27.7,87.2,996.5,0.00,0,0.0,0.0,0,0.0,26.1,0.0,12.0,3.469
2006/09/01,05:20:01,92,262,73,0.1,4.2,9.8,27.6,86.9,996.5,0.00,0,0.0,0.0,0,0.0,26.1,0.0,12.1,3.469
2006/09/01,05:30:01,85,263,57,0.1,4.2,9.5,27.5,86.7,996.6,0.00,0,0.0,0.0,0,0.0,25.9,0.0,12.2,3.470
2006/09/01,05:40:01,80,249,28,0.0,3.7,8.2,27.4,87.7,996.5,0.00,0,0.0,0.0,0,0.0,25.8,0.0,12.1,3.469
2006/09/01,05:50:01,177,241,304,0.2,4.0,7.3,27.5,86.8,996.5,0.00,0,0.0,0.0,0,0.0,26.1,0.0,12.2,3.469
2006/09/01,06:00:01,170,242,306,0.6,4.3,8.6,27.7,86.1,996.4,0.00,0,0.0,0.0,0,0.0,26.1,0.0,12.2,3.470
2006/09/01,06:10:01,175,243,315,0.5,4.6,10.2,27.8,86.5,996.4,0.00,0,0.0,0.0,0,0.0,26.1,0.0,12.0,3.469
2006/09/01,06:20:01,139,242,319,0.3,3.6,8.6,27.9,87.3,996.5,0.00,0,0.0,0.0,0,0.0,26.3,0.0,12.2,3.470
2006/09/01,06:30:01,90,243,41,0.1,4.1,9.0,27.8,87.1,996.6,0.00,0,0.0,0.0,0,0.0,26.3,0.0,11.9,3.469
2006/09/01,06:40:01,152,241,36,0.2,3.4,8.9,27.8,86.8,996.7,0.00,0,0.0,0.0,0,0.0,26.3,0.0,12.0,3.470
2006/09/01,06:50:01,160,243,4,0.1,3.2,8.2,27.8,86.3,996.7,0.00,0,0.0,0.0,0,0.0,26.4,0.0,12.0,3.468
2006/09/01,07:00:01,166,242,333,0.3,3.5,7.2,28.0,86.5,996.8,0.00,0,0.0,0.0,0,0.0,26.6,0.0,11.9,3.469
2006/09/01,07:10:01,128,248,45,0.1,2.6,7.3,28.2,86.2,996.9,0.00,0,0.0,0.0,0,0.0,26.8,0.0,12.0,3.469
2006/09/01,07:20:01,73,248,68,0.1,2.5,6.3,28.2,85.8,996.9,0.00,0,0.0,0.0,0,0.0,26.9,0.0,12.0,3.469
2006/09/01,07:30:01,77,241,312,0.2,3.5,8.4,28.3,84.9,996.9,0.00,0,0.0,0.0,0,0.0,27.1,0.0,11.9,3.470
2006/09/01,07:40:01,91,245,58,0.1,3.2,7.6,28.4,82.8,996.8,0.00,0,0.0,0.0,0,0.0,27.4,0.0,11.9,3.469
2006/09/01,07:50:01,96,244,32,0.1,3.0,7.9,28.6,84.2,996.9,0.00,0,0.0,0.0,0,0.0,27.4,0.0,12.1,3.469
2006/09/01,08:00:01,181,241,25,0.2,3.9,8.8,28.5,84.7,997.0,0.00,0,0.0,0.0,0,0.0,27.1,0.0,12.1,3.470
2006/09/01,08:10:01,175,243,0,0.5,4.0,8.6,28.2,83.8,997.1,0.00,0,0.0,0.0,0,0.0,27.3,0.0,11.9,3.469
2006/09/01,08:20:01,176,242,314,0.5,3.6,7.3,28.5,83.0,997.2,0.00,0,0.0,0.0,0,0.0,27.4,0.0,11.9,3.469
2006/09/01,08:30:01,177,243,22,0.3,4.3,8.7,28.5,83.3,997.2,0.00,0,0.0,0.0,0,0.0,27.6,0.0,11.9,3.470
2006/09/01,08:40:01,179,244,312,0.6,4.6,8.3,28.5,82.4,997.2,0.00,0,0.0,0.0,0,0.0,27.8,0.0,12.0,3.468
2006/09/01,08:50:01,187,243,313,0.4,4.2,7.7,28.6,82.7,997.3,0.00,0,0.0,0.0,0,0.0,27.8,0.0,12.1,3.469
2006/09/01,09:00:01,171,241,288,1.1,3.6,6.5,28.7,83.6,997.4,0.00,0,0.0,0.0,0,0.0,28.1,0.0,11.9,3.469
2006/09/01,09:10:01,156,239,297,0.5,3.2,6.4,28.9,82.5,997.4,0.00,0,0.0,0.0,0,0.0,28.6,0.0,12.0,3.468
2006/09/01,09:20:01,117,240,296,0.8,3.8,7.6,29.2,79.3,997.3,0.00,0,0.0,0.0,0,0.0,29.5,0.0,12.1,3.468
2006/09/01,09:30:01,177,242,292,0.7,3.9,7.7,29.2,81.7,997.4,0.00,0,0.0,0.0,0,0.0,29.3,0.0,12.2,3.469
2006/09/01,09:40:01,182,244,17,0.5,3.9,6.8,29.5,81.2,997.3,0.00,0,0.0,0.0,0,0.0,30.0,0.0,11.9,3.467
2006/09/01,09:50:01,125,246,25,0.2,3.1,7.8,29.6,80.2,997.3,0.00,0,0.0,0.0,0,0.0,30.0,0.0,12.0,3.468
2006/09/01,10:00:01,162,244,348,0.2,3.4,7.1,29.5,81.0,997.3,0.00,0,0.0,0.0,0,0.0,29.8,0.0,12.1,3.468
2006/09/01,10:10:01,79,247,57,0.1,3.0,7.8,29.7,80.7,997.4,0.00,0,0.0,0.0,0,0.0,30.1,0.0,11.9,3.468
2006/09/01,10:20:01,72,241,321,0.1,3.3,7.2,29.7,80.7,997.3,0.00,0,0.0,0.0,0,0.0,30.5,0.0,12.0,3.468
2006/09/01,10:30:01,114,248,57,0.0,3.0,7.7,29.6,81.0,997.4,0.00,0,0.0,0.0,0,0.0,30.5,0.0,11.9,3.468
2006/09/01,10:40:01,69,247,63,0.0,3.0,8.1,30.0,78.9,997.4,0.00,0,0.0,0.0,0,0.0,31.1,0.0,12.0,3.467
2006/09/01,10:50:01,136,256,74,0.1,3.7,9.2,29.7,80.5,997.4,0.00,0,0.0,0.0,0,0.0,30.8,0.0,12.1,3.467
2006/09/01,11:00:01,81,248,58,0.1,3.2,7.9,29.7,81.4,997.5,0.00,0,0.0,0.0,0,0.0,30.5,0.0,11.9,3.468
2006/09/01,11:10:01,168,244,332,0.0,3.5,8.2,29.7,82.4,997.4,0.00,0,0.0,0.0,0,0.0,30.1,0.0,11.9,3.469
2006/09/01,11:20:01,158,241,323,0.5,3.7,8.3,30.0,81.6,997.3,0.00,0,0.0,0.0,0,0.0,31.3,0.0,11.9,3.468
2006/09/01,11:30:01,98,249,6,0.2,3.4,8.5,30.0,80.7,997.4,0.00,0,0.0,0.0,0,0.0,31.0,0.0,12.1,3.468
2006/09/01,11:40:01,78,253,67,0.1,2.8,6.7,30.1,80.5,997.2,0.00,0,0.0,0.0,0,0.0,31.0,0.0,11.9,3.469
2006/09/01,11:50:01,82,261,70,0.0,3.1,8.2,30.1,81.1,997.1,0.00,0,0.0,0.0,0,0.0,30.8,0.0,12.0,3.467
2006/09/01,12:00:01,134,265,45,0.2,4.0,9.0,30.1,80.5,997.0,0.00,0,0.0,0.0,0,0.0,31.0,0.0,12.0,3.469
2006/09/01,12:10:01,101,267,67,0.1,3.6,8.1,30.0,80.8,997.2,0.00,0,0.0,0.0,0,0.0,30.3,0.0,11.9,3.468
2006/09/01,12:20:01,91,261,58,0.1,3.5,9.8,29.8,81.0,997.2,0.00,0,0.0,0.0,0,0.0,29.8,0.0,12.2,3.468
2006/09/01,12:30:01,90,262,67,0.1,4.3,10.0,29.7,81.4,997.3,0.00,0,0.0,0.0,0,0.0,29.1,0.0,12.2,3.468
2006/09/01,12:40:01,102,264,65,0.2,4.1,9.2,29.7,82.2,997.2,0.00,0,0.0,0.0,0,0.0,29.1,0.0,12.2,3.469
2006/09/01,12:50:01,143,263,73,0.1,4.5,10.6,29.6,82.5,997.1,0.00,0,0.0,0.0,0,0.0,29.0,0.0,12.0,3.468
2006/09/01,13:00:01,109,265,21,0.1,4.5,10.2,29.7,83.4,997.0,0.00,0,0.0,0.0,0,0.0,28.6,0.0,12.1,3.469
2006/09/01,13:10:01,98,265,77,0.1,3.9,9.0,29.7,83.6,997.0,0.00,0,0.0,0.0,0,0.0,28.8,0.0,12.1,3.468
2006/09/01,13:20:01,104,284,95,0.1,3.5,9.6,29.2,82.3,997.0,0.00,0,0.0,0.0,0,0.0,28.8,0.0,12.1,3.468
2006/09/01,13:30:01,170,342,161,0.0,3.4,9.5,28.4,84.3,996.9,0.01,100,0.0,0.0,0,0.0,27.4,0.0,11.9,3.469
2006/09/01,13:40:01,165,342,157,0.1,3.2,8.6,28.2,86.7,997.0,0.00,20,0.0,0.0,0,0.0,26.6,0.0,12.1,3.470
2006/09/01,13:50:01,170,347,154,0.1,2.6,6.7,28.0,87.2,997.0,0.08,200,0.0,0.0,0,0.0,26.1,0.0,12.2,3.470
2006/09/01,14:00:01,159,337,154,0.0,2.4,7.1,27.9,86.9,997.0,0.03,240,0.1,0.0,0,0.0,25.9,0.0,11.9,3.470
2006/09/01,14:10:01,154,325,136,0.0,2.3,6.0,28.1,87.7,996.8,0.00,80,0.0,0.0,0,0.0,26.1,0.0,12.0,3.469
2006/09/01,14:20:01,118,295,113,0.0,1.8,5.8,28.3,87.3,996.8,0.00,0,0.0,0.0,0,0.0,26.6,0.0,12.0,3.470
2006/09/01,14:30:01,105,281,96,0.0,2.0,5.6,28.3,86.9,996.7,0.00,0,0.0,0.0,0,0.0,26.8,0.0,12.0,3.469
2006/09/01,14:40:01,102,283,99,0.0,1.6,5.5,28.6,86.3,996.7,0.00,0,0.0,0.0,0,0.0,27.4,0.0,12.1,3.470
2006/09/01,14:50:01,109,282,99,0.0,1.6,5.2,28.7,84.9,996.8,0.00,0,0.0,0.0,0,0.0,27.9,0.0,11.9,3.469
2006/09/01,15:00:01,99,276,73,0.0,1.6,5.7,29.0,84.4,996.8,0.00,0,0.0,0.0,0,0.0,28.5,0.0,12.0,3.470
2006/09/01,15:10:01,118,261,81,0.0,2.2,5.4,29.2,84.1,996.7,0.00,0,0.0,0.0,0,0.0,29.3,0.0,12.1,3.469
2006/09/01,15:20:01,93,267,81,0.0,2.1,5.3,29.8,82.5,996.5,0.00,0,0.0,0.0,0,0.0,31.3,0.0,12.1,3.468
2006/09/01,15:30:01,206,266,64,0.3,2.8,6.3,29.5,83.0,996.6,0.00,0,0.0,0.0,0,0.0,30.5,0.0,12.0,3.468
2006/09/01,15:40:01,137,263,68,0.1,2.4,5.4,29.7,83.3,996.7,0.00,0,0.0,0.0,0,0.0,30.3,0.0,12.2,3.468
2006/09/01,15:50:01,101,274,82,0.0,1.9,4.9,30.1,80.8,996.7,0.00,0,0.0,0.0,0,0.0,32.1,0.0,12.0,3.469
2006/09/01,16:00:01,138,261,79,0.0,2.1,5.3,29.6,83.0,996.6,0.00,0,0.0,0.0,0,0.0,30.8,0.0,12.1,3.467
2006/09/01,16:10:01,117,263,72,0.1,2.1,5.1,29.5,82.4,996.6,0.00,0,0.0,0.0,0,0.0,30.1,0.0,12.0,3.468
2006/09/01,16:20:01,102,264,48,0.1,2.1,4.7,29.5,82.8,996.7,0.00,0,0.0,0.0,0,0.0,30.0,0.0,11.9,3.472
2006/09/01,16:30:01,168,265,77,0.1,2.0,4.6,29.6,83.0,996.7,0.00,0,0.0,0.0,0,0.0,29.6,0.0,12.0,3.468
2006/09/01,16:40:01,108,266,84,0.0,2.0,4.8,29.6,82.4,996.7,0.00,0,0.0,0.0,0,0.0,29.6,0.0,11.9,3.468
2006/09/01,16:50:01,77,250,72,0.0,2.0,4.7,29.6,82.4,996.6,0.00,0,0.0,0.0,0,0.0,29.5,0.0,12.0,3.468
2006/09/01,17:00:01,156,245,29,0.1,2.6,5.3,29.5,83.3,996.7,0.00,0,0.0,0.0,0,0.0,29.0,0.0,12.0,3.469
2006/09/01,17:10:01,74,246,61,0.1,2.2,5.0,29.5,83.0,996.7,0.00,0,0.0,0.0,0,0.0,29.1,0.0,12.1,3.467
2006/09/01,17:20:01,65,245,60,0.0,2.3,5.0,29.5,83.1,996.6,0.00,0,0.0,0.0,0,0.0,29.0,0.0,12.1,3.468
2006/09/01,17:30:01,127,256,53,0.1,2.2,4.8,29.4,83.4,996.6,0.00,0,0.0,0.0,0,0.0,29.0,0.0,11.9,3.469
2006/09/01,17:40:01,132,258,6,0.2,2.1,4.2,29.5,83.3,996.6,0.00,0,0.0,0.0,0,0.0,29.0,0.0,11.9,3.469
2006/09/01,17:50:01,124,252,15,0.1,2.3,4.5,29.3,84.5,996.7,0.00,0,0.0,0.0,0,0.0,28.5,0.0,12.0,3.469
2006/09/01,18:00:01,182,245,342,0.2,2.1,4.6,29.3,85.6,996.8,0.00,0,0.0,0.0,0,0.0,28.3,0.0,12.1,3.469
2006/09/01,18:10:01,185,244,298,0.6,2.5,5.6,29.3,86.1,996.9,0.00,0,0.0,0.0,0,0.0,28.1,0.0,12.1,3.469
2006/09/01,18:20:01,160,248,25,0.2,1.9,4.0,29.3,86.4,997.0,0.00,0,0.0,0.0,0,0.0,27.9,0.0,12.0,3.465
2006/09/01,18:30:01,168,246,332,0.3,2.0,5.5,29.2,87.1,997.1,0.00,0,0.0,0.0,0,0.0,27.8,0.0,11.9,3.470
2006/09/01,18:40:01,73,243,60,0.1,1.6,3.6,29.2,86.7,997.2,0.00,0,0.0,0.0,0,0.0,27.8,0.0,11.9,3.468
2006/09/01,18:50:01,95,275,78,0.0,2.1,5.3,29.0,85.5,997.2,0.00,0,0.0,0.0,0,0.0,27.8,0.0,11.9,3.469
2006/09/01,19:00:01,156,330,146,0.0,1.9,5.3,28.9,83.9,997.4,0.00,30,0.0,0.0,0,0.0,27.4,0.0,12.1,3.470
2006/09/01,19:10:01,165,333,149,0.0,1.9,4.9,29.2,83.4,997.4,0.00,0,0.0,0.0,0,0.0,27.4,0.0,12.1,3.470
2006/09/01,19:20:01,159,338,151,0.0,1.3,3.4,29.2,84.0,997.5,0.00,0,0.0,0.0,0,0.0,27.6,0.0,12.0,3.469
2006/09/01,19:30:01,206,352,158,0.0,1.4,3.3,29.1,84.8,997.4,0.00,0,0.0,0.0,0,0.0,27.3,0.0,12.1,3.468
2006/09/01,19:40:01,285,349,159,0.1,2.1,3.9,29.1,84.5,997.5,0.00,0,0.0,0.0,0,0.0,27.4,0.0,12.2,3.469
2006/09/01,19:50:01,253,350,89,0.2,2.4,4.7,29.1,85.0,997.8,0.00,0,0.0,0.0,0,0.0,27.4,0.0,12.1,3.469
2006/09/01,20:00:01,170,349,165,0.1,2.3,4.2,29.1,84.5,997.9,0.00,0,0.0,0.0,0,0.0,27.4,0.0,12.2,3.469
2006/09/01,20:10:01,294,352,160,0.2,2.5,4.4,29.2,84.7,998.0,0.00,0,0.0,0.0,0,0.0,27.4,0.0,12.0,3.470
2006/09/01,20:20:01,200,351,137,0.0,1.6,3.6,29.2,85.3,998.1,0.00,0,0.0,0.0,0,0.0,27.4,0.0,12.0,3.468
2006/09/01,20:30:01,184,350,167,0.0,1.6,3.4,29.2,86.0,998.2,0.00,0,0.0,0.0,0,0.0,27.4,0.0,12.0,3.470
2006/09/01,20:40:01,179,355,162,0.1,1.8,4.3,29.2,86.3,998.4,0.00,0,0.0,0.0,0,0.0,27.6,0.0,11.9,3.469
2006/09/01,20:50:01,246,20,130,0.2,2.8,5.7,28.9,85.7,998.5,0.00,0,0.0,0.0,0,0.0,27.4,0.0,12.0,3.469
2006/09/01,21:00:01,226,21,154,0.1,2.8,5.1,28.9,84.9,998.5,0.00,0,0.0,0.0,0,0.0,27.4,0.0,12.0,3.468
2006/09/01,21:10:01,206,22,158,0.0,2.3,4.8,28.9,84.0,998.6,0.00,0,0.0,0.0,0,0.0,27.4,0.0,12.0,3.470
2006/09/01,21:20:01,290,22,161,0.0,1.4,3.4,28.9,83.8,998.7,0.00,0,0.0,0.0,0,0.0,27.3,0.0,12.0,3.469
2006/09/01,21:30:01,241,26,113,0.0,1.5,3.8,29.0,84.1,998.7,0.00,0,0.0,0.0,0,0.0,27.4,0.0,12.2,3.470
2006/09/02,00:00:01,206,23,186,0.0,1.1,3.3,28.4,85.6,998.7,0.00,0,0.0,0.0,0,0.0,26.8,0.0,12.2,3.469
2006/09/02,00:10:01,248,13,120,0.2,1.9,3.6,28.7,83.0,998.7,0.00,0,0.0,0.0,0,0.0,27.1,0.0,12.0,3.469
2006/09/02,00:20:01,206,6,150,0.1,1.7,3.6,28.9,81.8,998.7,0.00,0,0.0,0.0,0,0.0,27.3,0.0,12.0,3.470
2006/09/02,00:30:01,206,12,147,0.0,1.4,3.4,29.0,81.9,998.7,0.00,0,0.0,0.0,0,0.0,27.1,0.0,12.0,3.468
2006/09/02,00:40:01,208,11,183,0.1,1.5,2.9,28.9,82.3,998.6,0.00,0,0.0,0.0,0,0.0,27.1,0.0,12.2,3.470
2006/09/02,00:50:01,236,16,153,0.0,1.7,3.3,28.8,82.2,998.6,0.00,0,0.0,0.0,0,0.0,27.1,0.0,12.2,3.469
2006/09/02,01:00:01,237,6,172,0.0,1.0,2.7,28.8,82.0,998.6,0.00,0,0.0,0.0,0,0.0,26.8,0.0,12.0,3.470
2006/09/02,01:10:01,206,13,117,0.0,1.3,2.5,28.7,82.1,998.5,0.00,0,0.0,0.0,0,0.0,27.3,0.0,12.1,3.469
2006/09/02,01:20:01,248,7,178,0.0,1.4,3.1,28.7,81.7,998.5,0.00,0,0.0,0.0,0,0.0,27.1,0.0,12.2,3.468
2006/09/02,01:30:01,255,13,125,0.1,1.1,2.6,28.7,81.2,998.6,0.00,0,0.0,0.0,0,0.0,27.1,0.0,12.0,3.469
2006/09/02,01:40:01,248,6,183,0.0,1.0,2.3,28.7,80.9,998.6,0.00,0,0.0,0.0,0,0.0,26.6,0.0,12.0,3.469
2006/09/02,01:50:01,245,345,130,0.0,1.3,2.7,28.9,80.4,998.6,0.00,0,0.0,0.0,0,0.0,27.1,0.0,12.0,3.470
2006/09/02,02:00:01,161,335,133,0.0,0.9,1.9,28.9,79.5,998.5,0.00,0,0.0,0.0,0,0.0,27.3,0.0,12.0,3.469
2006/09/02,02:10:01,257,338,151,0.0,1.0,2.1,29.0,78.7,998.4,0.00,0,0.0,0.0,0,0.0,27.3,0.0,12.1,3.469
2006/09/02,02:20:01,183,351,128,0.0,1.0,2.3,29.1,79.0,998.4,0.00,0,0.0,0.0,0,0.0,27.3,0.0,12.2,3.470
2006/09/02,02:30:01,168,340,158,0.0,1.1,2.9,29.1,79.5,998.4,0.00,0,0.0,0.0,0,0.0,27.3,0.0,12.1,3.468
2006/09/02,02:40:01,181,345,159,0.0,1.4,2.6,29.1,80.2,998.3,0.00,0,0.0,0.0,0,0.0,27.3,0.0,12.1,3.469
2006/09/02,02:50:01,166,340,154,0.1,1.2,3.0,29.1,80.4,998.3,0.00,0,0.0,0.0,0,0.0,26.9,0.0,12.2,3.469
2006/09/02,03:00:01,165,335,146,0.0,1.2,2.7,29.1,79.9,998.3,0.00,0,0.0,0.0,0,0.0,27.3,0.0,12.2,3.469
2006/09/02,03:10:01,175,347,158,0.0,1.1,2.6,29.0,79.9,998.2,0.00,0,0.0,0.0,0,0.0,27.4,0.0,12.0,3.469
2006/09/02,03:20:01,200,349,159,0.0,1.1,2.4,29.0,80.5,998.2,0.00,0,0.0,0.0,0,0.0,27.3,0.0,12.2,3.467
2006/09/02,03:30:01,156,326,136,0.0,0.8,2.3,28.9,80.7,998.3,0.00,0,0.0,0.0,0,0.0,26.9,0.0,12.0,3.470
2006/09/02,03:40:01,158,335,153,0.0,0.8,2.1,28.9,81.0,998.3,0.00,0,0.0,0.0,0,0.0,27.1,0.0,12.2,3.469
2006/09/02,03:50:01,252,348,160,0.0,1.1,2.6,28.9,81.1,998.3,0.00,0,0.0,0.0,0,0.0,27.1,0.0,12.2,3.469
2006/09/02,04:00:01,158,338,129,0.0,1.0,2.8,28.9,80.8,998.2,0.00,0,0.0,0.0,0,0.0,27.1,0.0,12.2,3.469
2006/09/02,04:10:01,262,343,146,0.0,1.1,3.1,28.9,80.5,998.2,0.00,0,0.0,0.0,0,0.0,27.3,0.0,12.2,3.469
2006/09/02,04:20:01,178,347,156,0.0,1.2,2.3,28.9,80.1,998.0,0.00,0,0.0,0.0,0,0.0,27.1,0.0,12.1,3.470
2006/09/02,04:30:01,160,335,153,0.0,1.0,2.3,28.9,79.9,998.0,0.00,0,0.0,0.0,0,0.0,26.9,0.0,12.1,3.469
2006/09/02,04:40:01,158,335,153,0.0,0.9,2.1,28.9,80.2,998.1,0.00,0,0.0,0.0,0,0.0,26.9,0.0,12.2,3.470
2006/09/02,04:50:01,153,320,140,0.0,0.6,2.3,28.8,79.9,998.2,0.00,0,0.0,0.0,0,0.0,26.6,0.0,12.0,3.468
2006/09/02,05:00:01,158,331,124,0.0,0.7,1.7,28.8,79.8,998.1,0.00,0,0.0,0.0,0,0.0,26.9,0.0,12.2,3.469
2006/09/02,05:10:01,170,300,111,0.0,0.8,2.1,28.8,79.5,998.2,0.00,0,0.0,0.0,0,0.0,26.9,0.0,12.1,3.469
2006/09/02,05:20:01,135,320,131,0.0,0.7,2.0,28.8,79.4,998.2,0.00,0,0.0,0.0,0,0.0,26.8,0.0,12.0,3.468
2006/09/02,05:30:01,156,332,152,0.0,0.9,2.3,28.8,79.5,998.2,0.00,0,0.0,0.0,0,0.0,26.9,0.0,12.0,3.469
2006/09/02,05:40:01,158,337,154,0.0,0.9,2.2,28.8,79.8,998.2,0.00,0,0.0,0.0,0,0.0,26.9,0.0,12.0,3.468
2006/09/02,05:50:01,166,336,153,0.0,0.8,2.0,28.8,80.1,998.2,0.00,0,0.0,0.0,0,0.0,26.9,0.0,12.0,3.469
2006/09/02,06:00:01,149,334,146,0.0,0.6,2.1,28.8,80.5,998.2,0.00,0,0.0,0.0,0,0.0,26.6,0.0,12.0,3.469
2006/09/02,06:10:01,129,284,101,0.0,0.8,2.2,28.8,79.9,998.2,0.00,0,0.0,0.0,0,0.0,27.1,0.0,12.1,3.469
2006/09/02,06:20:01,136,314,127,0.0,0.8,2.0,28.9,79.9,998.3,0.00,0,0.0,0.0,0,0.0,27.1,0.0,12.0,3.470
2006/09/02,06:30:01,153,330,139,0.0,0.8,2.5,29.0,80.2,998.4,0.00,0,0.0,0.0,0,0.0,27.6,0.0,12.2,3.468
2006/09/02,06:40:01,150,323,149,0.0,0.7,2.4,29.1,80.4,998.4,0.00,0,0.0,0.0,0,0.0,27.8,0.0,11.9,3.469
2006/09/02,06:50:01,127,285,82,0.0,0.9,2.6,29.2,79.7,998.5,0.00,0,0.0,0.0,0,0.0,28.1,0.0,12.0,3.469
2006/09/02,07:00:01,122,296,120,0.0,0.9,2.9,29.2,79.9,998.5,0.00,0,0.0,0.0,0,0.0,28.3,0.0,12.1,3.469
2006/09/02,07:10:01,98,276,93,0.0,1.0,2.6,29.2,79.8,998.6,0.00,0,0.0,0.0,0,0.0,28.6,0.0,12.1,3.469
2006/09/02,07:20:01,110,270,68,0.0,0.9,3.0,29.4,80.2,998.7,0.00,0,0.0,0.0,0,0.0,29.3,0.0,12.0,3.468
2006/09/02,07:30:01,90,271,81,0.0,0.9,2.6,29.6,79.7,998.7,0.00,0,0.0,0.0,0,0.0,30.1,0.0,12.0,3.468
2006/09/02,07:40:01,104,276,93,0.0,1.1,3.0,29.7,79.2,998.8,0.00,0,0.0,0.0,0,0.0,30.6,0.0,12.0,3.468
2006/09/02,07:50:01,102,278,92,0.0,1.0,2.6,29.9,78.1,998.9,0.00,0,0.0,0.0,0,0.0,31.1,0.0,12.1,3.468
2006/09/02,08:00:01,101,274,81,0.0,1.0,3.0,30.0,78.0,999.0,0.00,0,0.0,0.0,0,0.0,31.5,0.0,12.1,3.468
2006/09/02,08:10:01,100,270,89,0.0,1.0,2.8,30.2,77.2,999.1,0.00,0,0.0,0.0,0,0.0,32.0,0.0,11.9,3.468
2006/09/02,08:20:01,127,303,115,0.0,1.5,3.3,30.1,77.6,999.2,0.00,0,0.0,0.0,0,0.0,31.6,0.0,12.0,3.467
2006/09/02,08:30:01,160,317,130,0.0,1.5,3.2,30.1,77.8,999.2,0.00,0,0.0,0.0,0,0.0,31.3,0.0,12.1,3.468
2006/09/02,08:40:01,140,318,135,0.0,1.6,3.5,30.2,77.2,999.3,0.00,0,0.0,0.0,0,0.0,31.8,0.0,12.0,3.467
2006/09/02,08:50:01,140,318,138,0.0,1.4,3.3,30.4,76.6,999.4,0.00,0,0.0,0.0,0,0.0,32.1,0.0,11.9,3.467
2006/09/02,09:00:01,140,317,136,0.0,1.5,3.1,30.5,76.3,999.6,0.00,0,0.0,0.0,0,0.0,32.6,0.0,12.0,3.467
2006/09/02,09:10:01,136,314,135,0.0,1.5,3.0,30.5,75.8,999.7,0.00,0,0.0,0.0,0,0.0,33.0,0.0,11.9,3.467
2006/09/02,09:20:01,134,314,127,0.0,1.4,3.2,30.8,74.7,999.7,0.00,0,0.0,0.0,0,0.0,33.3,0.0,11.9,3.467
2006/09/02,09:30:01,126,298,78,0.0,1.3,2.8,30.6,74.4,999.9,0.00,0,0.0,0.0,0,0.0,33.8,0.0,12.1,3.465
2006/09/02,09:40:01,140,293,107,0.0,1.0,3.0,31.1,73.6,999.9,0.00,0,0.0,0.0,0,0.0,34.3,0.0,12.1,3.465
2006/09/02,09:50:01,127,310,121,0.0,1.3,2.7,30.9,73.2,999.9,0.00,0,0.0,0.0,0,0.0,34.2,0.0,12.1,3.467
2006/09/02,10:00:01,122,302,121,0.0,0.9,2.3,31.2,73.5,999.9,0.00,0,0.0,0.0,0,0.0,35.0,0.0,12.0,3.467
2006/09/02,10:10:01,127,303,123,0.0,1.2,2.9,31.3,70.8,1000.0,0.00,0,0.0,0.0,0,0.0,35.5,0.0,12.0,3.467
2006/09/02,10:20:01,127,297,122,0.0,1.1,2.7,31.3,69.9,999.9,0.00,0,0.0,0.0,0,0.0,35.8,0.0,12.0,3.465
2006/09/02,10:30:01,135,301,115,0.0,1.3,3.0,31.4,69.0,999.9,0.00,0,0.0,0.0,0,0.0,35.5,0.0,12.0,3.468
2006/09/02,10:40:01,111,273,47,0.0,1.3,3.7,31.1,70.7,1000.0,0.00,0,0.0,0.0,0,0.0,35.3,0.0,11.9,3.465
2006/09/02,10:50:01,96,271,80,0.1,1.4,3.0,31.1,68.6,1000.0,0.00,0,0.0,0.0,0,0.0,35.5,0.0,11.9,3.468
2006/09/02,11:00:01,78,254,73,0.0,1.4,3.6,31.2,68.0,1000.1,0.00,0,0.0,0.0,0,0.0,35.8,0.0,12.0,3.465
2006/09/02,11:10:01,110,261,79,0.1,1.6,3.6,31.3,65.2,1000.2,0.00,0,0.0,0.0,0,0.0,35.5,0.0,12.0,3.465
2006/09/02,11:20:01,109,275,85,0.0,1.4,3.1,31.4,64.1,1000.2,0.00,0,0.0,0.0,0,0.0,35.7,0.0,11.9,3.465
2006/09/02,11:30:01,117,290,110,0.0,1.6,3.1,31.2,65.5,1000.2,0.00,0,0.0,0.0,0,0.0,35.2,0.0,12.0,3.467
2006/09/02,11:40:01,141,290,105,0.0,1.6,3.0,31.2,63.7,1000.2,0.00,0,0.0,0.0,0,0.0,34.3,0.0,12.1,3.467
2006/09/02,11:50:01,115,293,113,0.0,1.2,2.9,31.8,64.9,1000.1,0.00,0,0.0,0.0,0,0.0,34.5,0.0,12.0,3.467
2006/09/02,12:00:01,117,300,114,0.0,1.3,3.1,31.7,63.4,1000.0,0.00,0,0.0,0.0,0,0.0,35.3,0.0,11.9,3.467
2006/09/02,12:10:01,133,307,125,0.0,1.3,2.9,32.0,62.7,1000.0,0.00,0,0.0,0.0,0,0.0,35.8,0.0,11.9,3.467
2006/09/02,12:20:01,128,309,119,0.1,1.7,3.0,31.7,63.5,1000.0,0.00,0,0.0,0.0,0,0.0,35.2,0.0,12.0,3.467
2006/09/02,12:30:01,133,308,108,0.0,1.7,3.6,31.7,63.4,1000.0,0.00,0,0.0,0.0,0,0.0,35.8,0.0,11.9,3.465
2006/09/02,12:40:01,123,301,119,0.0,1.5,3.6,32.0,62.1,999.9,0.00,0,0.0,0.0,0,0.0,36.2,0.0,12.0,3.465
2006/09/02,12:50:01,118,291,109,0.0,1.4,3.1,32.1,62.8,999.8,0.00,0,0.0,0.0,0,0.0,36.3,0.0,12.0,3.465
2006/09/02,13:00:01,105,268,79,0.0,1.6,3.6,31.7,62.1,999.8,0.00,0,0.0,0.0,0,0.0,36.3,0.0,11.9,3.467
2006/09/02,13:10:01,110,292,97,0.0,1.4,3.6,32.4,60.6,999.8,0.00,0,0.0,0.0,0,0.0,36.8,0.0,12.0,3.467
2006/09/02,13:20:01,117,299,116,0.0,1.5,3.3,32.3,61.4,999.7,0.00,0,0.0,0.0,0,0.0,36.5,0.0,11.9,3.465
2006/09/02,13:30:01,150,308,126,0.0,2.0,4.2,31.9,62.9,999.5,0.00,0,0.0,0.0,0,0.0,35.8,0.0,11.9,3.467
2006/09/02,13:40:01,127,305,109,0.0,1.7,3.4,31.9,63.6,999.5,0.00,0,0.0,0.0,0,0.0,35.7,0.0,12.0,3.467
2006/09/02,13:50:01,156,310,109,0.0,1.8,4.2,31.9,65.8,999.3,0.00,0,0.0,0.0,0,0.0,35.7,0.0,11.9,3.468
2006/09/02,14:00:01,151,316,137,0.0,1.7,3.6,31.9,65.1,999.3,0.00,0,0.0,0.0,0,0.0,35.5,0.0,12.0,3.467
2006/09/02,14:10:01,133,301,118,0.0,2.1,3.6,31.7,65.0,999.3,0.00,0,0.0,0.0,0,0.0,35.2,0.0,12.0,3.467
2006/09/02,14:20:01,127,294,100,0.0,1.7,3.7,32.1,65.0,999.2,0.00,0,0.0,0.0,0,0.0,35.3,0.0,12.0,3.465
2006/09/02,14:30:01,151,308,131,0.0,2.0,3.9,31.8,65.7,999.1,0.00,0,0.0,0.0,0,0.0,35.0,0.0,12.0,3.467
2006/09/02,14:40:01,128,303,112,0.0,2.1,3.7,31.7,67.0,999.0,0.00,0,0.0,0.0,0,0.0,34.3,0.0,12.1,3.467
2006/09/02,14:50:01,122,300,109,0.0,1.7,3.5,31.8,66.8,998.9,0.00,0,0.0,0.0,0,0.0,34.5,0.0,12.1,3.467
2006/09/02,15:00:01,107,279,92,0.0,1.8,3.5,31.7,68.7,998.8,0.00,0,0.0,0.0,0,0.0,34.7,0.0,12.1,3.467
2006/09/02,15:10:01,125,308,114,0.0,1.4,3.2,32.2,66.7,998.8,0.00,0,0.0,0.0,0,0.0,35.2,0.0,11.9,3.467
2006/09/02,15:20:01,122,288,106,0.0,1.5,3.4,32.0,67.4,998.8,0.00,0,0.0,0.0,0,0.0,35.3,0.0,11.9,3.465
2006/09/02,15:30:01,106,267,81,0.0,1.7,3.3,31.4,70.7,998.9,0.00,0,0.0,0.0,0,0.0,34.0,0.0,12.0,3.467
2006/09/02,15:40:01,103,270,80,0.0,1.7,3.2,31.4,71.5,998.9,0.00,0,0.0,0.0,0,0.0,33.7,0.0,12.0,3.467
2006/09/02,15:50:01,108,283,99,0.0,1.4,3.7,32.2,68.3,998.9,0.00,0,0.0,0.0,0,0.0,34.5,0.0,12.1,3.467
2006/09/02,16:00:01,111,274,79,0.0,1.8,3.7,32.0,69.4,999.0,0.00,0,0.0,0.0,0,0.0,34.0,0.0,12.1,3.467
2006/09/02,16:10:01,99,269,81,0.0,1.3,3.2,31.9,70.8,998.9,0.00,0,0.0,0.0,0,0.0,33.5,0.0,12.0,3.467
2006/09/02,16:20:01,151,302,117,0.0,1.6,3.7,31.9,70.5,998.9,0.00,0,0.0,0.0,0,0.0,33.5,0.0,12.0,3.468
2006/09/02,16:30:01,167,288,73,0.0,1.5,3.2,31.9,69.4,998.8,0.00,0,0.0,0.0,0,0.0,33.7,0.0,12.0,3.468
2006/09/02,16:40:01,123,281,81,0.0,1.6,3.3,31.6,70.7,998.9,0.00,0,0.0,0.0,0,0.0,33.3,0.0,12.0,3.469
2006/09/02,16:50:01,118,297,112,0.0,1.5,3.2,31.8,70.7,998.9,0.00,0,0.0,0.0,0,0.0,33.1,0.0,11.9,3.467
2006/09/02,17:00:01,117,298,98,0.0,1.7,3.4,31.4,71.1,998.9,0.00,0,0.0,0.0,0,0.0,32.3,0.0,11.9,3.468
2006/09/02,17:10:01,129,302,73,0.1,1.7,3.3,31.4,71.1,998.8,0.00,0,0.0,0.0,0,0.0,31.8,0.0,12.0,3.468
2006/09/02,17:20:01,120,293,79,0.0,1.3,2.7,31.4,71.1,998.9,0.00,0,0.0,0.0,0,0.0,31.6,0.0,12.0,3.467
2006/09/02,17:30:01,146,285,79,0.0,1.4,3.2,31.3,71.3,999.0,0.00,0,0.0,0.0,0,0.0,31.3,0.0,11.9,3.469